Regional Weather Roundup
Issued by NWS

Home | Current Version | Previous Version | Text Only | Print | Product List | Glossary Off
Versions: 1 2 3 4 5 6 7 8 9 10 11 12 13 14 15 16 17 18 19 20 21 22 23 24 25 26 27 28 29 30 31 32 33 34 35 36 37 38 39 40 41 42 43 44 45 46 47 48 49 50

000
ASUS45 KABQ 061301
RWRNM
WEATHER ROUNDUP FOR NEW MEXICO
NATIONAL WEATHER SERVICE ALBUQUERQUE NM
700 AM MDT WED MAY 06 2015

NOTE: "FAIR" MEANS FEW OR NO CLOUDS BELOW 12,000 FEET AGL WITH NO
       SIGNIFICANT WEATHER OR OBSTRUCTIONS TO VISION.

      THIS PRODUCT IS RELEASED AS TWO VERSIONS.  ONE VERSION NEAR
      THE TOP OF THE HOUR CONTAINING PRELIMINARY DATA FROM ALBUQUERQUE
      AND OTHER STATIONS.  A FINAL VERSION WITH ADDITIONAL DATA IS
      ISSUED ABOUT 10 MINUTES AFTER THE HOUR.

NMZ501-503-504-510>518-061400-
NORTHWEST PLATEAU/NORTHCENTRAL MOUNTAINS

CITY           SKY/WX    TMP DP  RH WIND       PRES   REMARKS
FARMINGTON     MOCLDY    49  46  90 S3        29.90R
SANTA FE       MOCLDY    47  43  86 SW10      29.94R
TAOS           CLOUDY    45  36  70 SW9       29.94R

$$
NMZ402-403-502-505>509-061400-
WESTCENTRAL MOUNTAINS/SOUTHWEST MOUNTAINS

CITY           SKY/WX    TMP DP  RH WIND       PRES   REMARKS
GALLUP         CLOUDY    46  43  89 SW5       29.99R
SILVER CITY      N/A     46  36  66 W6        30.02R

$$
NMZ407-409-411-412-061400-
SOUTHERN DESERTS

CITY           SKY/WX    TMP DP  RH WIND       PRES   REMARKS
DEMING         CLEAR     48  38  68 CALM      29.97S
HOLLOMAN AFB   PTCLDY    54  38  55 CALM      29.93R
ALAMOGORDO     PTCLDY    54  37  54 SE3       29.95R
T OR C         CLOUDY    56  38  50 NW8       29.95S

$$
NMZ519>523-061400-
CENTRAL VALLEYS/CENTRAL HIGHLANDS

CITY           SKY/WX    TMP DP  RH WIND       PRES   REMARKS
ALBUQUERQUE    MOCLDY    54  43  66 SW7       29.95S
DOUBLE EAGLE   MOCLDY    46  43  87 SW9       29.95S
CLINES CORNERS MOCLDY    45  41  86 W17       29.94R
BELEN          FAIR      53  41  64 SW9       29.95R
SOCORRO        NOT AVBL

$$
NMZ524>526-539-540-061400-
SOUTHCENTRAL MOUNTAINS

CITY           SKY/WX    TMP DP  RH WIND       PRES   REMARKS
RUIDOSO        NOT AVBL

$$
NMZ527>531-061400-
NORTHEAST HIGHLANDS/NORTHEAST PLAINS

CITY           SKY/WX    TMP DP  RH WIND       PRES   REMARKS
LAS VEGAS      MOSUNNY   47  39  74 S10       29.89R
RATON          CLOUDY    46  42  86 CALM      29.80R
CLAYTON        SUNNY     50  42  74 SW13      29.75S

$$
NMZ532>537-061400-
EASTCENTRAL PLAINS

CITY           SKY/WX    TMP DP  RH WIND       PRES   REMARKS
TUCUMCARI      SUNNY     55  45  68 SW18      29.79S
CANNON AFB     NOT AVBL
CLOVIS AIRPORT SUNNY     54  46  76 SW15      29.86S

$$
NMZ028-029-538-061400-
SOUTHEAST PLAINS

CITY           SKY/WX    TMP DP  RH WIND       PRES   REMARKS
ROSWELL        SUNNY     50  46  86 S5        29.89R
ARTESIA        SUNNY     54  46  76 W5        29.91R
CARLSBAD       SUNNY     59  46  62 SW10      29.88R
HOBBS          CLOUDY    59  59 100 S13       29.92R FOG


$$



USA.gov is the U.S. government's official web portal to all federal, state and local government web resources and services.